Time,TemperatureF,DewpointF,PressureIn,WindDirection,WindDirectionDegrees,WindSpeedMPH,WindSpeedGustMPH,Humidity,HourlyPrecipIn,Conditions,Clouds,dailyrainin,SoftwareType,DateUTC
2013-04-26 00:01:00,48.3,28.3,0.00,West,270,0.0,0.0,46,0.00,,,0.00,WUHU216HW,2013-04-26 06:01:00,
2013-04-26 00:08:00,48.0,28.0,0.00,West,270,0.0,0.0,46,0.00,,,0.00,WUHU216HW,2013-04-26 06:08:00,
2013-04-26 00:13:00,47.8,27.8,0.00,West,270,0.0,0.0,46,0.00,,,0.00,WUHU216HW,2013-04-26 06:13:00,
2013-04-26 00:18:00,47.6,27.7,0.00,West,270,0.0,0.0,46,0.00,,,0.00,WUHU216HW,2013-04-26 06:18:00,
2013-04-26 00:23:00,47.4,27.5,0.00,West,270,0.0,0.0,46,0.00,,,0.00,WUHU216HW,2013-04-26 06:23:00,
2013-04-26 00:28:00,47.3,27.4,0.00,West,270,0.0,0.0,46,0.00,,,0.00,WUHU216HW,2013-04-26 06:28:00,
2013-04-26 00:33:00,47.1,27.7,0.00,West,270,0.0,0.0,47,0.00,,,0.00,WUHU216HW,2013-04-26 06:33:00,
2013-04-26 00:38:00,46.9,27.6,0.00,West,270,0.0,0.0,47,0.00,,,0.00,WUHU216HW,2013-04-26 06:38:00,
2013-04-26 00:43:00,46.7,27.4,0.00,West,270,0.0,0.0,47,0.00,,,0.00,WUHU216HW,2013-04-26 06:43:00,
2013-04-26 00:48:00,46.5,27.3,0.00,West,270,0.0,0.0,47,0.00,,,0.00,WUHU216HW,2013-04-26 06:48:00,
2013-04-26 00:53:00,46.2,27.1,0.00,West,270,0.0,0.0,47,0.00,,,0.00,WUHU216HW,2013-04-26 06:53:00,
2013-04-26 00:58:00,46.2,27.5,0.00,West,270,0.0,0.0,48,0.00,,,0.00,WUHU216HW,2013-04-26 06:58:00,
2013-04-26 01:03:00,46.0,27.3,0.00,West,270,0.0,0.0,48,0.00,,,0.00,WUHU216HW,2013-04-26 07:03:00,
2013-04-26 01:08:00,46.0,27.1,0.00,West,270,0.0,0.0,48,0.00,,,0.00,WUHU216HW,2013-04-26 07:08:00,
2013-04-26 01:13:00,45.6,27.0,0.00,West,270,0.0,0.0,48,0.00,,,0.00,WUHU216HW,2013-04-26 07:13:00,
2013-04-26 01:18:00,45.5,26.8,0.00,West,270,0.0,0.0,48,0.00,,,0.00,WUHU216HW,2013-04-26 07:18:00,
2013-04-26 01:23:00,45.3,26.7,0.00,West,270,0.0,0.0,48,0.00,,,0.00,WUHU216HW,2013-04-26 07:23:00,
2013-04-26 01:28:00,45.1,27.0,0.00,West,270,0.0,0.0,49,0.00,,,0.00,WUHU216HW,2013-04-26 07:28:00,
2013-04-26 01:33:00,44.9,26.9,0.00,West,270,0.0,0.0,49,0.00,,,0.00,WUHU216HW,2013-04-26 07:33:00,
2013-04-26 01:38:00,44.7,26.9,0.00,West,270,0.0,0.0,49,0.00,,,0.00,WUHU216HW,2013-04-26 07:38:00,
2013-04-26 01:43:00,44.6,26.6,0.00,West,270,0.0,0.0,49,0.00,,,0.00,WUHU216HW,2013-04-26 07:43:00,
2013-04-26 01:48:00,44.4,26.9,0.00,West,270,0.0,0.0,50,0.00,,,0.00,WUHU216HW,2013-04-26 07:48:00,
2013-04-26 01:53:00,44.4,26.9,0.00,West,270,0.0,0.0,50,0.00,,,0.00,WUHU216HW,2013-04-26 07:53:00,
2013-04-26 01:58:00,44.0,26.6,0.00,West,270,0.0,0.0,50,0.00,,,0.00,WUHU216HW,2013-04-26 07:58:00,
2013-04-26 02:03:00,43.8,26.4,0.00,West,270,0.0,0.0,50,0.00,,,0.00,WUHU216HW,2013-04-26 08:03:00,
2013-04-26 02:08:00,43.7,26.7,0.00,West,270,0.0,0.0,51,0.00,,,0.00,WUHU216HW,2013-04-26 08:08:00,
2013-04-26 02:13:00,43.5,26.6,0.00,West,270,0.0,0.0,51,0.00,,,0.00,WUHU216HW,2013-04-26 08:13:00,
2013-04-26 02:18:00,43.3,26.4,0.00,West,270,0.0,0.0,51,0.00,,,0.00,WUHU216HW,2013-04-26 08:18:00,
2013-04-26 02:23:00,43.3,26.2,0.00,West,270,0.0,0.0,51,0.00,,,0.00,WUHU216HW,2013-04-26 08:23:00,
2013-04-26 02:28:00,42.9,26.1,0.00,West,270,0.0,0.0,51,0.00,,,0.00,WUHU216HW,2013-04-26 08:28:00,
2013-04-26 02:33:00,42.9,26.1,0.00,West,270,0.0,0.0,51,0.00,,,0.00,WUHU216HW,2013-04-26 08:33:00,
2013-04-26 02:38:00,42.9,26.1,0.00,West,270,0.0,0.0,51,0.00,,,0.00,WUHU216HW,2013-04-26 08:38:00,
2013-04-26 02:43:00,42.6,25.7,0.00,West,270,0.0,0.0,51,0.00,,,0.00,WUHU216HW,2013-04-26 08:43:00,
2013-04-26 02:49:00,42.6,25.7,0.00,West,270,0.0,0.0,51,0.00,,,0.00,WUHU216HW,2013-04-26 08:49:00,
2013-04-26 02:54:00,42.4,26.0,0.00,West,270,0.0,0.0,52,0.00,,,0.00,WUHU216HW,2013-04-26 08:54:00,
2013-04-26 02:59:00,42.0,25.6,0.00,West,270,0.0,0.0,52,0.00,,,0.00,WUHU216HW,2013-04-26 08:59:00,
2013-04-26 03:04:00,42.0,25.6,0.00,West,270,0.0,0.0,52,0.00,,,0.00,WUHU216HW,2013-04-26 09:04:00,
2013-04-26 03:09:00,42.0,25.6,0.00,West,270,0.0,0.0,52,0.00,,,0.00,WUHU216HW,2013-04-26 09:09:00,
2013-04-26 03:14:00,41.7,25.3,0.00,West,270,0.0,0.0,52,0.00,,,0.00,WUHU216HW,2013-04-26 09:14:00,
2013-04-26 03:19:00,41.7,25.3,0.00,West,270,0.0,0.0,52,0.00,,,0.00,WUHU216HW,2013-04-26 09:19:00,
2013-04-26 03:24:00,41.5,25.5,0.00,West,270,0.0,0.0,53,0.00,,,0.00,WUHU216HW,2013-04-26 09:24:00,
2013-04-26 03:29:00,41.5,25.5,0.00,West,270,0.0,0.0,53,0.00,,,0.00,WUHU216HW,2013-04-26 09:29:00,
2013-04-26 03:34:00,41.3,25.4,0.00,West,270,0.0,0.0,53,0.00,,,0.00,WUHU216HW,2013-04-26 09:34:00,
2013-04-26 03:39:00,41.1,25.2,0.00,West,270,0.0,0.0,53,0.00,,,0.00,WUHU216HW,2013-04-26 09:39:00,
2013-04-26 03:44:00,41.0,25.0,0.00,West,270,0.0,0.0,53,0.00,,,0.00,WUHU216HW,2013-04-26 09:44:00,
2013-04-26 03:49:00,40.8,25.3,0.00,West,270,0.0,0.0,54,0.00,,,0.00,WUHU216HW,2013-04-26 09:49:00,
2013-04-26 03:54:00,40.8,25.3,0.00,West,270,0.0,0.0,54,0.00,,,0.00,WUHU216HW,2013-04-26 09:54:00,
2013-04-26 03:59:00,40.6,25.1,0.00,West,270,0.0,0.0,54,0.00,,,0.00,WUHU216HW,2013-04-26 09:59:00,
2013-04-26 04:04:00,40.6,25.1,0.00,West,270,0.0,0.0,54,0.00,,,0.00,WUHU216HW,2013-04-26 10:04:00,
2013-04-26 04:09:00,40.2,24.8,0.00,West,270,0.0,0.0,54,0.00,,,0.00,WUHU216HW,2013-04-26 10:09:00,
2013-04-26 04:14:00,40.2,24.8,0.00,West,270,0.0,0.0,54,0.00,,,0.00,WUHU216HW,2013-04-26 10:14:00,
2013-04-26 04:19:00,40.1,24.6,0.00,West,270,0.0,0.0,54,0.00,,,0.00,WUHU216HW,2013-04-26 10:19:00,
2013-04-26 04:24:00,39.9,24.9,0.00,West,270,0.0,0.0,55,0.00,,,0.00,WUHU216HW,2013-04-26 10:24:00,
2013-04-26 04:29:00,39.9,24.9,0.00,West,270,0.0,0.0,55,0.00,,,0.00,WUHU216HW,2013-04-26 10:29:00,
2013-04-26 04:34:00,39.7,24.7,0.00,West,270,0.0,0.0,55,0.00,,,0.00,WUHU216HW,2013-04-26 10:34:00,
2013-04-26 04:39:00,39.5,24.6,0.00,West,270,0.0,0.0,55,0.00,,,0.00,WUHU216HW,2013-04-26 10:39:00,
2013-04-26 04:44:00,39.3,24.4,0.00,West,270,0.0,0.0,55,0.00,,,0.00,WUHU216HW,2013-04-26 10:44:00,
2013-04-26 04:49:00,39.3,24.4,0.00,West,270,0.0,0.0,55,0.00,,,0.00,WUHU216HW,2013-04-26 10:49:00,
2013-04-26 04:54:00,39.3,24.4,0.00,West,270,0.0,0.0,55,0.00,,,0.00,WUHU216HW,2013-04-26 10:54:00,
2013-04-26 04:59:00,39.0,24.0,0.00,West,270,0.0,0.0,55,0.00,,,0.00,WUHU216HW,2013-04-26 10:59:00,
2013-04-26 05:04:00,39.0,24.0,0.00,West,270,0.0,0.0,55,0.00,,,0.00,WUHU216HW,2013-04-26 11:04:00,
2013-04-26 05:09:00,38.8,23.9,0.00,West,270,0.0,0.0,55,0.00,,,0.00,WUHU216HW,2013-04-26 11:09:00,
2013-04-26 05:14:00,38.8,23.9,0.00,West,270,0.0,0.0,55,0.00,,,0.00,WUHU216HW,2013-04-26 11:14:00,
2013-04-26 05:19:00,38.8,24.3,0.00,West,270,0.0,0.0,56,0.00,,,0.00,WUHU216HW,2013-04-26 11:19:00,
2013-04-26 05:24:00,38.4,24.0,0.00,West,270,0.0,0.0,56,0.00,,,0.00,WUHU216HW,2013-04-26 11:24:00,
2013-04-26 05:29:00,38.4,24.0,0.00,West,270,0.0,0.0,56,0.00,,,0.00,WUHU216HW,2013-04-26 11:29:00,
2013-04-26 05:34:00,38.3,23.8,0.00,West,270,0.0,0.0,56,0.00,,,0.00,WUHU216HW,2013-04-26 11:34:00,
2013-04-26 05:39:00,38.1,23.7,0.00,West,270,0.0,0.0,56,0.00,,,0.00,WUHU216HW,2013-04-26 11:39:00,
2013-04-26 05:44:00,38.1,24.1,0.00,West,270,0.0,0.0,57,0.00,,,0.00,WUHU216HW,2013-04-26 11:44:00,
2013-04-26 05:49:00,37.9,23.9,0.00,West,270,0.0,0.0,57,0.00,,,0.00,WUHU216HW,2013-04-26 11:49:00,
2013-04-26 05:54:00,37.9,23.9,0.00,West,270,0.0,0.0,57,0.00,,,0.00,WUHU216HW,2013-04-26 11:54:00,
2013-04-26 05:59:00,37.7,23.8,0.00,West,270,0.0,0.0,57,0.00,,,0.00,WUHU216HW,2013-04-26 11:59:00,
2013-04-26 06:04:00,37.7,23.8,0.00,West,270,0.0,0.0,57,0.00,,,0.00,WUHU216HW,2013-04-26 12:04:00,
2013-04-26 06:09:00,37.5,23.6,0.00,West,270,0.0,0.0,57,0.00,,,0.00,WUHU216HW,2013-04-26 12:09:00,
2013-04-26 06:14:00,37.5,23.6,0.00,West,270,0.0,0.0,57,0.00,,,0.00,WUHU216HW,2013-04-26 12:14:00,
2013-04-26 06:19:00,37.4,23.9,0.00,West,270,0.0,0.0,58,0.00,,,0.00,WUHU216HW,2013-04-26 12:19:00,
2013-04-26 06:24:00,37.2,23.7,0.00,West,270,0.0,0.0,58,0.00,,,0.00,WUHU216HW,2013-04-26 12:24:00,
2013-04-26 06:29:00,37.2,23.7,0.00,West,270,0.0,0.0,58,0.00,,,0.00,WUHU216HW,2013-04-26 12:29:00,
2013-04-26 06:34:00,37.0,23.6,0.00,West,270,0.0,0.0,58,0.00,,,0.00,WUHU216HW,2013-04-26 12:34:00,
2013-04-26 06:39:00,36.8,23.4,0.00,West,270,0.0,0.0,58,0.00,,,0.00,WUHU216HW,2013-04-26 12:39:00,
2013-04-26 06:44:00,36.6,23.2,0.00,West,270,0.0,0.0,58,0.00,,,0.00,WUHU216HW,2013-04-26 12:44:00,
2013-04-26 06:49:00,36.6,23.2,0.00,West,270,0.0,0.0,58,0.00,,,0.00,WUHU216HW,2013-04-26 12:49:00,
2013-04-26 06:54:00,36.5,23.1,0.00,West,270,0.0,0.0,58,0.00,,,0.00,WUHU216HW,2013-04-26 12:54:00,
2013-04-26 06:59:00,36.3,22.9,0.00,West,270,0.0,0.0,58,0.00,,,0.00,WUHU216HW,2013-04-26 12:59:00,
2013-04-26 07:04:00,36.3,22.9,0.00,West,270,0.0,0.0,58,0.00,,,0.00,WUHU216HW,2013-04-26 13:04:00,
2013-04-26 07:09:00,36.3,23.3,0.00,West,270,0.0,0.0,59,0.00,,,0.00,WUHU216HW,2013-04-26 13:09:00,
2013-04-26 07:14:00,36.1,23.2,0.00,West,270,0.0,0.0,59,0.00,,,0.00,WUHU216HW,2013-04-26 13:14:00,
2013-04-26 07:19:00,36.1,23.2,0.00,West,270,0.0,0.0,59,0.00,,,0.00,WUHU216HW,2013-04-26 13:19:00,
2013-04-26 07:24:00,36.1,23.2,0.00,West,270,0.0,0.0,59,0.00,,,0.00,WUHU216HW,2013-04-26 13:24:00,
2013-04-26 07:29:00,36.1,23.2,0.00,West,270,0.0,0.0,59,0.00,,,0.00,WUHU216HW,2013-04-26 13:29:00,
2013-04-26 07:34:00,35.9,23.0,0.00,West,270,0.0,0.0,59,0.00,,,0.00,WUHU216HW,2013-04-26 13:34:00,
2013-04-26 07:39:00,35.9,23.0,0.00,West,270,0.0,0.0,59,0.00,,,0.00,WUHU216HW,2013-04-26 13:39:00,
2013-04-26 07:44:00,35.9,23.0,0.00,West,270,0.0,0.0,59,0.00,,,0.00,WUHU216HW,2013-04-26 13:44:00,
2013-04-26 07:49:00,35.9,23.5,0.00,West,270,0.0,0.0,60,0.00,,,0.00,WUHU216HW,2013-04-26 13:49:00,
2013-04-26 07:54:00,35.9,23.5,0.00,West,270,0.0,0.0,60,0.00,,,0.00,WUHU216HW,2013-04-26 13:54:00,
2013-04-26 07:59:00,35.9,23.5,0.00,West,270,0.0,0.0,60,0.00,,,0.00,WUHU216HW,2013-04-26 13:59:00,
2013-04-26 08:04:00,35.9,23.5,0.00,West,270,0.0,0.0,60,0.00,,,0.00,WUHU216HW,2013-04-26 14:04:00,
2013-04-26 08:09:00,36.1,23.6,0.00,West,270,0.0,0.0,60,0.00,,,0.00,WUHU216HW,2013-04-26 14:09:00,
2013-04-26 08:14:00,36.3,23.8,0.00,West,270,0.0,0.0,60,0.00,,,0.00,WUHU216HW,2013-04-26 14:14:00,
2013-04-26 08:19:00,36.3,23.8,0.00,West,270,0.0,0.0,60,0.00,,,0.00,WUHU216HW,2013-04-26 14:19:00,
2013-04-26 08:24:00,36.3,24.1,0.00,West,270,0.0,0.0,61,0.00,,,0.00,WUHU216HW,2013-04-26 14:24:00,
2013-04-26 08:29:00,36.5,24.3,0.00,West,270,0.0,0.0,61,0.00,,,0.00,WUHU216HW,2013-04-26 14:29:00,
2013-04-26 08:34:00,36.6,24.5,0.00,West,270,0.0,0.0,61,0.00,,,0.00,WUHU216HW,2013-04-26 14:34:00,
2013-04-26 08:39:00,37.0,24.8,0.00,West,270,0.0,0.0,61,0.00,,,0.00,WUHU216HW,2013-04-26 14:39:00,
2013-04-26 08:44:00,37.2,25.3,0.00,West,270,0.0,0.0,62,0.00,,,0.00,WUHU216HW,2013-04-26 14:44:00,
2013-04-26 08:49:00,37.2,25.3,0.00,West,270,0.0,0.0,62,0.00,,,0.00,WUHU216HW,2013-04-26 14:49:00,
2013-04-26 08:54:00,37.7,25.8,0.00,West,270,0.0,0.0,62,0.00,,,0.00,WUHU216HW,2013-04-26 14:54:00,
2013-04-26 08:59:00,37.9,26.0,0.00,West,270,0.0,0.0,62,0.00,,,0.00,WUHU216HW,2013-04-26 14:59:00,
2013-04-26 09:04:00,38.1,26.5,0.00,West,270,0.0,0.0,63,0.00,,,0.00,WUHU216HW,2013-04-26 15:04:00,
2013-04-26 09:09:00,38.8,27.2,0.00,West,270,0.0,0.0,63,0.00,,,0.00,WUHU216HW,2013-04-26 15:09:00,
2013-04-26 09:14:00,39.3,28.1,0.00,SSE,158,0.0,0.0,64,0.00,,,0.00,WUHU216HW,2013-04-26 15:14:00,
2013-04-26 09:19:00,39.7,28.4,0.00,East,90,0.0,0.0,64,0.00,,,0.00,WUHU216HW,2013-04-26 15:19:00,
2013-04-26 09:24:00,40.6,29.3,0.00,East,90,0.0,0.0,64,0.00,,,0.00,WUHU216HW,2013-04-26 15:24:00,
2013-04-26 09:29:00,41.0,29.7,0.00,East,90,0.0,0.0,64,0.00,,,0.00,WUHU216HW,2013-04-26 15:29:00,
2013-04-26 09:34:00,41.5,30.2,0.00,East,90,0.0,0.0,64,0.00,,,0.00,WUHU216HW,2013-04-26 15:34:00,
2013-04-26 09:39:00,42.4,30.6,0.00,East,90,0.0,0.0,63,0.00,,,0.00,WUHU216HW,2013-04-26 15:39:00,
2013-04-26 09:44:00,42.9,31.1,0.00,East,90,0.0,0.0,63,0.00,,,0.00,WUHU216HW,2013-04-26 15:44:00,
2013-04-26 09:49:00,43.5,31.3,0.00,East,90,0.0,0.0,62,0.00,,,0.00,WUHU216HW,2013-04-26 15:49:00,
2013-04-26 09:54:00,44.4,32.2,0.00,East,90,0.0,0.0,62,0.00,,,0.00,WUHU216HW,2013-04-26 15:54:00,
2013-04-26 09:59:00,44.9,32.3,0.00,East,90,0.0,0.0,61,0.00,,,0.00,WUHU216HW,2013-04-26 15:59:00,
2013-04-26 10:04:00,45.6,32.9,0.00,East,90,0.0,0.0,61,0.00,,,0.00,WUHU216HW,2013-04-26 16:04:00,
2013-04-26 10:09:00,46.5,33.4,0.00,East,90,0.0,0.0,60,0.00,,,0.00,WUHU216HW,2013-04-26 16:09:00,
2013-04-26 10:14:00,46.9,33.3,0.00,East,90,0.0,0.0,59,0.00,,,0.00,WUHU216HW,2013-04-26 16:14:00,
2013-04-26 10:19:00,47.4,33.8,0.00,East,90,0.0,0.0,59,0.00,,,0.00,WUHU216HW,2013-04-26 16:19:00,
2013-04-26 10:24:00,48.0,33.9,0.00,ENE,68,0.0,0.0,58,0.00,,,0.00,WUHU216HW,2013-04-26 16:24:00,
2013-04-26 10:29:00,48.7,34.1,0.00,ENE,68,0.0,0.0,57,0.00,,,0.00,WUHU216HW,2013-04-26 16:29:00,
2013-04-26 10:34:00,49.2,34.6,0.00,ENE,68,0.0,0.0,57,0.00,,,0.00,WUHU216HW,2013-04-26 16:34:00,
2013-04-26 10:39:00,50.1,34.5,0.00,ENE,68,0.0,0.0,55,0.00,,,0.00,WUHU216HW,2013-04-26 16:39:00,
2013-04-26 10:44:00,50.7,34.6,0.00,ENE,68,0.0,0.0,54,0.00,,,0.00,WUHU216HW,2013-04-26 16:44:00,
2013-04-26 10:49:00,51.4,35.2,0.00,ENE,68,0.0,0.0,54,0.00,,,0.00,WUHU216HW,2013-04-26 16:49:00,
2013-04-26 10:54:00,52.3,35.1,0.00,ENE,68,0.0,0.0,52,0.00,,,0.00,WUHU216HW,2013-04-26 16:54:00,
2013-04-26 10:59:00,52.8,35.6,0.00,ENE,68,0.0,0.0,52,0.00,,,0.00,WUHU216HW,2013-04-26 16:59:00,
2013-04-26 11:04:00,53.4,36.1,0.00,ENE,68,0.0,0.0,52,0.00,,,0.00,WUHU216HW,2013-04-26 17:04:00,
2013-04-26 11:09:00,54.1,35.9,0.00,ENE,68,0.0,0.0,50,0.00,,,0.00,WUHU216HW,2013-04-26 17:09:00,
2013-04-26 11:14:00,54.5,36.2,0.00,ENE,68,0.0,0.0,50,0.00,,,0.00,WUHU216HW,2013-04-26 17:14:00,
2013-04-26 11:19:00,55.0,36.1,0.00,ESE,113,0.0,0.0,49,0.00,,,0.00,WUHU216HW,2013-04-26 17:19:00,
2013-04-26 11:24:00,55.7,36.8,0.00,East,90,0.0,0.0,49,0.00,,,0.00,WUHU216HW,2013-04-26 17:24:00,
2013-04-26 11:29:00,56.1,36.6,0.00,East,90,0.0,0.0,48,0.00,,,0.00,WUHU216HW,2013-04-26 17:29:00,
2013-04-26 11:34:00,56.6,37.1,0.00,ESE,113,0.0,0.0,48,0.00,,,0.00,WUHU216HW,2013-04-26 17:34:00,
2013-04-26 11:39:00,57.3,37.8,0.00,SSE,158,0.0,0.0,48,0.00,,,0.00,WUHU216HW,2013-04-26 17:39:00,
2013-04-26 11:44:00,57.9,37.7,0.00,ESE,113,0.0,0.0,47,0.00,,,0.00,WUHU216HW,2013-04-26 17:44:00,
2013-04-26 11:49:00,58.2,38.0,0.00,ESE,113,0.0,0.0,47,0.00,,,0.00,WUHU216HW,2013-04-26 17:49:00,
2013-04-26 11:54:00,58.8,38.5,0.00,ESE,113,0.0,0.0,47,0.00,,,0.00,WUHU216HW,2013-04-26 17:54:00,
2013-04-26 11:59:00,59.1,38.3,0.00,East,90,0.0,0.0,46,0.00,,,0.00,WUHU216HW,2013-04-26 17:59:00,
2013-04-26 12:04:00,59.7,38.8,0.00,East,90,0.0,0.0,46,0.00,,,0.00,WUHU216HW,2013-04-26 18:04:00,
2013-04-26 12:09:00,60.6,38.4,0.00,NE,45,0.0,0.0,44,0.00,,,0.00,WUHU216HW,2013-04-26 18:09:00,
2013-04-26 12:14:00,61.1,38.9,0.00,ENE,68,0.0,0.0,44,0.00,,,0.00,WUHU216HW,2013-04-26 18:14:00,
2013-04-26 12:19:00,61.5,39.2,0.00,ENE,68,0.0,0.0,44,0.00,,,0.00,WUHU216HW,2013-04-26 18:19:00,
2013-04-26 12:24:00,62.4,39.5,0.00,ENE,68,0.0,0.0,43,0.00,,,0.00,WUHU216HW,2013-04-26 18:24:00,
2013-04-26 12:29:00,63.1,40.1,0.00,ENE,68,0.0,0.0,43,0.00,,,0.00,WUHU216HW,2013-04-26 18:29:00,
2013-04-26 12:34:00,63.8,40.2,0.00,NE,45,0.0,0.0,42,0.00,,,0.00,WUHU216HW,2013-04-26 18:34:00,
2013-04-26 12:39:00,64.7,41.0,0.00,ENE,68,0.0,0.0,42,0.00,,,0.00,WUHU216HW,2013-04-26 18:39:00,
2013-04-26 12:44:00,65.4,41.7,0.00,ENE,68,0.0,0.0,42,0.00,,,0.00,WUHU216HW,2013-04-26 18:44:00,
2013-04-26 12:49:00,66.0,42.5,0.00,SW,225,0.0,0.0,42,0.00,,,0.00,WUHU216HW,2013-04-26 18:49:00,
2013-04-26 12:54:00,66.9,41.8,0.00,SW,225,0.0,0.0,40,0.00,,,0.00,WUHU216HW,2013-04-26 18:54:00,
2013-04-26 12:59:00,67.8,43.2,0.00,SW,225,0.0,0.0,41,0.00,,,0.00,WUHU216HW,2013-04-26 18:59:00,
2013-04-26 13:04:00,68.5,43.2,0.00,SW,225,0.0,0.0,40,0.00,,,0.00,WUHU216HW,2013-04-26 19:04:00,
2013-04-26 13:09:00,69.0,43.0,0.00,ENE,68,0.0,0.0,39,0.00,,,0.00,WUHU216HW,2013-04-26 19:09:00,
2013-04-26 13:14:00,69.6,43.5,0.00,NE,45,0.0,0.0,39,0.00,,,0.00,WUHU216HW,2013-04-26 19:14:00,
2013-04-26 13:19:00,70.3,43.8,0.00,ENE,68,0.0,0.0,39,0.00,,,0.00,WUHU216HW,2013-04-26 19:19:00,
2013-04-26 13:24:00,70.7,43.7,0.00,South,180,0.0,0.0,38,0.00,,,0.00,WUHU216HW,2013-04-26 19:24:00,
2013-04-26 13:29:00,71.2,44.9,0.00,SSW,203,0.0,0.0,39,0.00,,,0.00,WUHU216HW,2013-04-26 19:29:00,
2013-04-26 13:34:00,71.7,44.4,0.00,East,90,0.0,0.0,38,0.00,,,0.00,WUHU216HW,2013-04-26 19:34:00,
2013-04-26 13:39:00,72.1,45.0,0.00,SW,225,0.0,0.0,38,0.00,,,0.00,WUHU216HW,2013-04-26 19:39:00,
2013-04-26 13:44:00,72.5,45.3,0.00,NW,315,0.0,0.0,38,0.00,,,0.00,WUHU216HW,2013-04-26 19:44:00,
2013-04-26 13:49:00,73.2,45.9,0.00,NE,45,0.0,0.0,38,0.00,,,0.00,WUHU216HW,2013-04-26 19:49:00,
2013-04-26 13:54:00,73.7,45.7,0.00,NE,45,0.0,0.0,37,0.00,,,0.00,WUHU216HW,2013-04-26 19:54:00,
2013-04-26 13:59:00,74.1,46.0,0.00,WSW,248,0.0,0.0,37,0.00,,,0.00,WUHU216HW,2013-04-26 19:59:00,
2013-04-26 14:04:00,74.4,45.6,0.00,ENE,68,0.0,0.0,36,0.00,,,0.00,WUHU216HW,2013-04-26 20:04:00,
2013-04-26 14:09:00,74.8,45.9,0.00,East,90,0.0,0.0,36,0.00,,,0.00,WUHU216HW,2013-04-26 20:09:00,
2013-04-26 14:14:00,75.0,46.0,0.00,NW,315,0.0,0.0,36,0.00,,,0.00,WUHU216HW,2013-04-26 20:14:00,
2013-04-26 14:19:00,75.3,46.4,0.00,NE,45,0.0,0.0,36,0.00,,,0.00,WUHU216HW,2013-04-26 20:19:00,
2013-04-26 14:24:00,75.7,46.7,0.00,NE,45,0.0,0.0,36,0.00,,,0.00,WUHU216HW,2013-04-26 20:24:00,
2013-04-26 14:29:00,75.9,46.1,0.00,ENE,68,0.0,0.0,35,0.00,,,0.00,WUHU216HW,2013-04-26 20:29:00,
2013-04-26 14:34:00,76.4,45.8,0.00,ENE,68,0.0,0.0,34,0.00,,,0.00,WUHU216HW,2013-04-26 20:34:00,
2013-04-26 14:39:00,76.6,46.7,0.00,NE,45,0.0,0.0,35,0.00,,,0.00,WUHU216HW,2013-04-26 20:39:00,
2013-04-26 14:44:00,76.8,46.9,0.00,WSW,248,0.0,0.0,35,0.00,,,0.00,WUHU216HW,2013-04-26 20:44:00,
2013-04-26 14:49:00,77.1,47.2,0.00,ENE,68,0.0,0.0,35,0.00,,,0.00,WUHU216HW,2013-04-26 20:49:00,
2013-04-26 14:54:00,77.3,47.4,0.00,North,0,0.0,0.0,35,0.00,,,0.00,WUHU216HW,2013-04-26 20:54:00,
2013-04-26 14:59:00,77.5,46.8,0.00,NNE,23,0.0,0.0,34,0.00,,,0.00,WUHU216HW,2013-04-26 20:59:00,
2013-04-26 15:04:00,77.5,46.0,0.00,NE,45,0.0,0.0,33,0.00,,,0.00,WUHU216HW,2013-04-26 21:04:00,
2013-04-26 15:09:00,77.3,45.8,0.00,NE,45,0.0,0.0,33,0.00,,,0.00,WUHU216HW,2013-04-26 21:09:00,
2013-04-26 15:14:00,77.1,45.7,0.00,West,270,0.0,0.0,33,0.00,,,0.00,WUHU216HW,2013-04-26 21:14:00,
2013-04-26 15:19:00,77.1,45.7,0.00,NE,45,0.0,0.0,33,0.00,,,0.00,WUHU216HW,2013-04-26 21:19:00,
2013-04-26 15:24:00,77.1,44.9,0.00,NE,45,0.0,0.0,32,0.00,,,0.00,WUHU216HW,2013-04-26 21:24:00,
2013-04-26 15:29:00,77.0,45.6,0.00,ENE,68,0.0,0.0,33,0.00,,,0.00,WUHU216HW,2013-04-26 21:29:00,
2013-04-26 15:34:00,77.1,45.7,0.00,SSW,203,0.0,0.0,33,0.00,,,0.00,WUHU216HW,2013-04-26 21:34:00,
2013-04-26 15:39:00,77.5,46.0,0.00,SSE,158,0.0,0.0,33,0.00,,,0.00,WUHU216HW,2013-04-26 21:39:00,
2013-04-26 15:44:00,77.5,45.2,0.00,NE,45,0.0,0.0,32,0.00,,,0.00,WUHU216HW,2013-04-26 21:44:00,
2013-04-26 15:49:00,77.9,45.5,0.00,South,180,0.0,0.0,32,0.00,,,0.00,WUHU216HW,2013-04-26 21:49:00,
2013-04-26 15:54:00,77.9,45.5,0.00,SSE,158,0.0,0.0,32,0.00,,,0.00,WUHU216HW,2013-04-26 21:54:00,
2013-04-26 15:59:00,78.0,45.7,0.00,West,270,0.0,0.0,32,0.00,,,0.00,WUHU216HW,2013-04-26 21:59:00,
2013-04-26 16:04:00,78.0,45.7,0.00,WSW,248,0.0,0.0,32,0.00,,,0.00,WUHU216HW,2013-04-26 22:04:00,
2013-04-26 16:09:00,78.0,45.7,0.00,WSW,248,0.0,0.6,32,0.00,,,0.00,WUHU216HW,2013-04-26 22:09:00,
2013-04-26 16:14:00,78.0,44.9,0.00,WSW,248,0.0,0.6,31,0.00,,,0.00,WUHU216HW,2013-04-26 22:14:00,
2013-04-26 16:19:00,78.0,44.9,0.00,WSW,248,0.0,0.0,31,0.00,,,0.00,WUHU216HW,2013-04-26 22:19:00,
2013-04-26 16:24:00,78.0,44.9,0.00,WSW,248,0.0,0.0,31,0.00,,,0.00,WUHU216HW,2013-04-26 22:24:00,
2013-04-26 16:29:00,77.9,44.8,0.00,WSW,248,0.0,0.0,31,0.00,,,0.00,WUHU216HW,2013-04-26 22:29:00,
2013-04-26 16:34:00,77.7,44.6,0.00,WSW,248,0.0,0.0,31,0.00,,,0.00,WUHU216HW,2013-04-26 22:34:00,
2013-04-26 16:39:00,77.7,44.6,0.00,WSW,248,0.0,0.0,31,0.00,,,0.00,WUHU216HW,2013-04-26 22:39:00,
2013-04-26 16:44:00,77.5,44.5,0.00,WSW,248,0.0,0.0,31,0.00,,,0.00,WUHU216HW,2013-04-26 22:44:00,
2013-04-26 16:49:00,77.1,44.2,0.00,WSW,248,6.0,6.0,31,0.00,,,0.00,WUHU216HW,2013-04-26 22:49:00,
2013-04-26 16:54:00,76.8,43.9,0.00,WSW,248,0.0,6.0,31,0.00,,,0.00,WUHU216HW,2013-04-26 22:54:00,
2013-04-26 16:59:00,76.6,43.7,0.00,WSW,248,0.0,6.0,31,0.00,,,0.00,WUHU216HW,2013-04-26 22:59:00,
2013-04-26 17:04:00,76.1,43.2,0.00,WSW,248,0.0,2.4,31,0.00,,,0.00,WUHU216HW,2013-04-26 23:04:00,
2013-04-26 17:09:00,75.9,43.1,0.00,WSW,248,2.4,2.4,31,0.00,,,0.00,WUHU216HW,2013-04-26 23:09:00,
2013-04-26 17:14:00,75.7,42.9,0.00,WSW,248,0.0,2.4,31,0.00,,,0.00,WUHU216HW,2013-04-26 23:14:00,
2013-04-26 17:19:00,75.3,42.6,0.00,WSW,248,0.0,0.0,31,0.00,,,0.00,WUHU216HW,2013-04-26 23:19:00,
2013-04-26 17:24:00,75.0,42.3,0.00,WSW,248,0.0,0.0,31,0.00,,,0.00,WUHU216HW,2013-04-26 23:24:00,
2013-04-26 17:29:00,74.8,42.1,0.00,WSW,248,0.0,0.0,31,0.00,,,0.00,WUHU216HW,2013-04-26 23:29:00,
2013-04-26 17:34:00,74.4,41.8,0.00,WSW,248,0.0,0.0,31,0.00,,,0.00,WUHU216HW,2013-04-26 23:34:00,
2013-04-26 17:39:00,74.1,41.5,0.00,WSW,248,0.0,0.0,31,0.00,,,0.00,WUHU216HW,2013-04-26 23:39:00,
2013-04-26 17:44:00,74.1,42.2,0.00,SSE,158,0.0,0.0,32,0.00,,,0.00,WUHU216HW,2013-04-26 23:44:00,
2013-04-26 17:49:00,73.7,41.9,0.00,WSW,248,0.0,0.0,32,0.00,,,0.00,WUHU216HW,2013-04-26 23:49:00,
2013-04-26 17:53:00,73.5,41.0,0.00,NE,45,0.0,0.0,31,0.00,,,0.00,WUHU216HW,2013-04-26 23:53:00,
2013-04-26 17:54:00,73.5,41.0,0.00,NE,45,0.0,0.0,31,0.00,,,0.00,WUHU216HW,2013-04-26 23:54:00,
2013-04-26 17:55:00,73.5,41.7,0.00,NE,45,0.0,0.0,32,0.00,,,0.00,WUHU216HW,2013-04-26 23:55:00,
2013-04-26 18:05:00,73.0,41.3,0.00,SE,135,0.0,0.0,32,0.00,,,0.00,WUHU216HW,2013-04-27 00:05:00,
2013-04-26 18:10:00,72.6,41.0,0.00,NE,45,0.0,0.0,32,0.00,,,0.00,WUHU216HW,2013-04-27 00:10:00,
2013-04-26 18:15:00,72.5,40.8,0.00,South,180,0.0,0.0,32,0.00,,,0.00,WUHU216HW,2013-04-27 00:15:00,
2013-04-26 18:20:00,72.1,39.8,0.00,East,90,0.0,0.0,31,0.00,,,0.00,WUHU216HW,2013-04-27 00:20:00,
2013-04-26 18:25:00,71.9,39.6,0.00,NNE,23,0.0,0.0,31,0.00,,,0.00,WUHU216HW,2013-04-27 00:25:00,
2013-04-26 18:30:00,71.7,39.5,0.00,East,90,0.0,0.0,31,0.00,,,0.00,WUHU216HW,2013-04-27 00:30:00,
2013-04-26 18:35:00,71.4,39.9,0.00,East,90,0.0,0.0,32,0.00,,,0.00,WUHU216HW,2013-04-27 00:35:00,
2013-04-26 18:40:00,71.2,39.8,0.00,South,180,0.0,0.0,32,0.00,,,0.00,WUHU216HW,2013-04-27 00:40:00,
2013-04-26 18:45:00,71.0,40.3,0.00,SSW,203,0.0,0.0,33,0.00,,,0.00,WUHU216HW,2013-04-27 00:45:00,
2013-04-26 18:50:00,70.7,40.0,0.00,SSW,203,0.0,0.0,33,0.00,,,0.00,WUHU216HW,2013-04-27 00:50:00,
2013-04-26 18:55:00,70.3,39.7,0.00,SSE,158,0.0,0.0,33,0.00,,,0.00,WUHU216HW,2013-04-27 00:55:00,
2013-04-26 19:00:00,70.1,39.5,0.00,WSW,248,0.0,0.0,33,0.00,,,0.00,WUHU216HW,2013-04-27 01:00:00,
2013-04-26 19:05:00,69.9,39.4,0.00,East,90,0.0,0.0,33,0.00,,,0.00,WUHU216HW,2013-04-27 01:05:00,
2013-04-26 19:10:00,69.6,39.0,0.00,NE,45,0.0,0.0,33,0.00,,,0.00,WUHU216HW,2013-04-27 01:10:00,
2013-04-26 19:15:00,69.4,38.9,0.00,SSE,158,0.0,0.0,33,0.00,,,0.00,WUHU216HW,2013-04-27 01:15:00,
2013-04-26 19:20:00,69.0,38.6,0.00,SSE,158,0.0,0.0,33,0.00,,,0.00,WUHU216HW,2013-04-27 01:20:00,
2013-04-26 19:25:00,68.7,39.0,0.00,SSE,158,0.0,0.0,34,0.00,,,0.00,WUHU216HW,2013-04-27 01:25:00,
2013-04-26 19:30:00,68.5,38.8,0.00,SSE,158,0.0,0.0,34,0.00,,,0.00,WUHU216HW,2013-04-27 01:30:00,
2013-04-26 19:35:00,68.3,38.6,0.00,SSE,158,0.0,0.0,34,0.00,,,0.00,WUHU216HW,2013-04-27 01:35:00,
2013-04-26 19:40:00,67.8,38.9,0.00,SSE,158,0.0,0.0,35,0.00,,,0.00,WUHU216HW,2013-04-27 01:40:00,
2013-04-26 19:45:00,67.6,38.8,0.00,SSE,158,0.0,0.0,35,0.00,,,0.00,WUHU216HW,2013-04-27 01:45:00,
2013-04-26 19:50:00,67.2,38.4,0.00,SSE,158,0.0,0.0,35,0.00,,,0.00,WUHU216HW,2013-04-27 01:50:00,
2013-04-26 19:55:00,66.9,38.9,0.00,SSE,158,0.0,0.0,36,0.00,,,0.00,WUHU216HW,2013-04-27 01:55:00,
2013-04-26 20:00:00,66.7,38.7,0.00,SSE,158,0.0,0.0,36,0.00,,,0.00,WUHU216HW,2013-04-27 02:00:00,
2013-04-26 20:05:00,66.0,38.4,0.00,SSE,158,0.0,0.0,36,0.00,,,0.00,WUHU216HW,2013-04-27 02:05:00,
2013-04-26 20:10:00,65.8,38.6,0.00,SSE,158,0.0,0.0,37,0.00,,,0.00,WUHU216HW,2013-04-27 02:10:00,
2013-04-26 20:15:00,65.4,38.3,0.00,SSE,158,0.0,0.0,37,0.00,,,0.00,WUHU216HW,2013-04-27 02:15:00,
2013-04-26 20:20:00,65.1,38.0,0.00,SSE,158,0.0,0.0,37,0.00,,,0.00,WUHU216HW,2013-04-27 02:20:00,
2013-04-26 20:25:00,64.5,37.5,0.00,SSE,158,0.0,0.0,37,0.00,,,0.00,WUHU216HW,2013-04-27 02:25:00,
2013-04-26 20:30:00,64.2,37.2,0.00,SSW,203,0.0,0.0,37,0.00,,,0.00,WUHU216HW,2013-04-27 02:30:00,
2013-04-26 20:35:00,64.0,37.7,0.00,WSW,248,0.0,0.0,37,0.00,,,0.00,WUHU216HW,2013-04-27 02:35:00,
2013-04-26 20:40:00,63.5,37.3,0.00,West,270,0.0,0.0,38,0.00,,,0.00,WUHU216HW,2013-04-27 02:40:00,
2013-04-26 20:45:00,63.3,37.1,0.00,West,270,0.0,0.0,38,0.00,,,0.00,WUHU216HW,2013-04-27 02:45:00,
2013-04-26 20:50:00,63.1,36.8,0.00,West,270,0.0,0.0,38,0.00,,,0.00,WUHU216HW,2013-04-27 02:50:00,
2013-04-26 20:55:00,62.6,37.2,0.00,West,270,0.0,0.0,39,0.00,,,0.00,WUHU216HW,2013-04-27 02:55:00,
2013-04-26 21:00:00,62.4,37.0,0.00,West,270,0.0,0.0,39,0.00,,,0.00,WUHU216HW,2013-04-27 03:00:00,
2013-04-26 21:05:00,61.8,36.5,0.00,West,270,0.0,0.0,39,0.00,,,0.00,WUHU216HW,2013-04-27 03:05:00,
2013-04-26 21:10:00,61.5,36.9,0.00,West,270,0.0,0.0,40,0.00,,,0.00,WUHU216HW,2013-04-27 03:10:00,
2013-04-26 21:15:00,61.1,36.6,0.00,West,270,0.0,0.0,40,0.00,,,0.00,WUHU216HW,2013-04-27 03:15:00,
2013-04-26 21:20:00,60.6,36.3,0.00,West,270,0.0,0.0,40,0.00,,,0.00,WUHU216HW,2013-04-27 03:20:00,
2013-04-26 21:25:00,60.4,35.9,0.00,West,270,0.0,0.0,40,0.00,,,0.00,WUHU216HW,2013-04-27 03:25:00,
2013-04-26 21:30:00,60.0,36.2,0.00,West,270,0.0,0.0,41,0.00,,,0.00,WUHU216HW,2013-04-27 03:30:00,
2013-04-26 21:35:00,59.7,35.9,0.00,West,270,0.0,0.0,41,0.00,,,0.00,WUHU216HW,2013-04-27 03:35:00,
2013-04-26 21:40:00,59.5,35.7,0.00,West,270,0.0,0.0,41,0.00,,,0.00,WUHU216HW,2013-04-27 03:40:00,
2013-04-26 21:45:00,59.0,35.2,0.00,West,270,0.0,0.0,41,0.00,,,0.00,WUHU216HW,2013-04-27 03:45:00,
2013-04-26 21:50:00,58.8,35.6,0.00,West,270,0.0,0.0,42,0.00,,,0.00,WUHU216HW,2013-04-27 03:50:00,
2013-04-26 21:55:00,58.6,35.5,0.00,West,270,0.0,0.0,42,0.00,,,0.00,WUHU216HW,2013-04-27 03:55:00,
2013-04-26 22:00:00,58.2,35.2,0.00,West,270,0.0,0.0,42,0.00,,,0.00,WUHU216HW,2013-04-27 04:00:00,
2013-04-26 22:01:00,58.2,35.2,0.00,West,270,0.0,0.0,42,0.00,,,0.00,WUHU216HW,2013-04-27 04:01:00,
2013-04-26 22:06:00,57.9,34.8,0.00,West,270,0.0,0.0,42,0.00,,,0.00,WUHU216HW,2013-04-27 04:06:00,
2013-04-26 22:11:00,57.7,35.2,0.00,West,270,0.0,0.0,43,0.00,,,0.00,WUHU216HW,2013-04-27 04:11:00,
2013-04-26 22:16:00,57.3,34.9,0.00,West,270,0.0,0.0,43,0.00,,,0.00,WUHU216HW,2013-04-27 04:16:00,
2013-04-26 22:21:00,57.0,34.6,0.00,West,270,0.0,0.0,43,0.00,,,0.00,WUHU216HW,2013-04-27 04:21:00,
2013-04-26 22:26:00,56.8,34.4,0.00,West,270,0.0,0.0,43,0.00,,,0.00,WUHU216HW,2013-04-27 04:26:00,
2013-04-26 22:31:00,56.4,34.1,0.00,West,270,0.0,0.0,43,0.00,,,0.00,WUHU216HW,2013-04-27 04:31:00,
2013-04-26 22:36:00,56.1,34.3,0.00,West,270,0.0,0.0,44,0.00,,,0.00,WUHU216HW,2013-04-27 04:36:00,
2013-04-26 22:41:00,55.9,34.1,0.00,West,270,0.0,0.0,44,0.00,,,0.00,WUHU216HW,2013-04-27 04:41:00,
2013-04-26 22:46:00,55.5,33.8,0.00,West,270,0.0,0.0,44,0.00,,,0.00,WUHU216HW,2013-04-27 04:46:00,
2013-04-26 22:51:00,55.4,33.6,0.00,West,270,0.0,0.0,44,0.00,,,0.00,WUHU216HW,2013-04-27 04:51:00,
2013-04-26 22:56:00,55.2,34.0,0.00,West,270,0.0,0.0,45,0.00,,,0.00,WUHU216HW,2013-04-27 04:56:00,
2013-04-26 23:01:00,54.8,33.7,0.00,West,270,0.0,0.0,45,0.00,,,0.00,WUHU216HW,2013-04-27 05:01:00,
2013-04-26 23:06:00,54.6,33.6,0.00,West,270,0.0,0.0,45,0.00,,,0.00,WUHU216HW,2013-04-27 05:06:00,
2013-04-26 23:11:00,54.3,33.2,0.00,West,270,0.0,0.0,45,0.00,,,0.00,WUHU216HW,2013-04-27 05:11:00,
2013-04-26 23:16:00,54.1,33.6,0.00,West,270,0.0,0.0,46,0.00,,,0.00,WUHU216HW,2013-04-27 05:16:00,
2013-04-26 23:21:00,53.9,33.5,0.00,West,270,0.0,0.0,46,0.00,,,0.00,WUHU216HW,2013-04-27 05:21:00,
2013-04-26 23:26:00,53.7,33.3,0.00,West,270,0.0,0.0,46,0.00,,,0.00,WUHU216HW,2013-04-27 05:26:00,
2013-04-26 23:31:00,53.4,33.0,0.00,West,270,0.0,0.0,46,0.00,,,0.00,WUHU216HW,2013-04-27 05:31:00,
2013-04-26 23:36:00,53.2,32.8,0.00,West,270,0.0,0.0,46,0.00,,,0.00,WUHU216HW,2013-04-27 05:36:00,
2013-04-26 23:41:00,53.2,33.4,0.00,West,270,0.0,0.0,47,0.00,,,0.00,WUHU216HW,2013-04-27 05:41:00,
2013-04-26 23:46:00,52.8,33.0,0.00,West,270,0.0,0.0,47,0.00,,,0.00,WUHU216HW,2013-04-27 05:46:00,
2013-04-26 23:51:00,52.5,32.7,0.00,West,270,0.0,0.0,47,0.00,,,0.00,WUHU216HW,2013-04-27 05:51:00,
2013-04-26 23:56:00,52.3,32.6,0.00,West,270,0.0,0.0,47,0.00,,,0.00,WUHU216HW,2013-04-27 05:56:00,